This is the latest recevied weather packets stored in our database for station/object IW1CBG-3. If no packets are shown the sender has not sent any weather packets the latest 10 day(s).
| Time | Temp. | Humidity | Pressure | Rain* | Wind** | Luminosity | Snow |
|---|---|---|---|---|---|---|---|
| 1777858666 | 9.44° C | 85% | 1029.9 hPa | 0 mm | - | - | - |
| 1777858066 | 9.44° C | 81% | 1030.1 hPa | 0 mm | - | - | - |
| 1777857465 | 8.89° C | 88% | 1030.3 hPa | 0 mm | - | - | - |
| 1777856865 | 9.44° C | 90% | 1030.1 hPa | 0 mm | - | - | - |
| 1777856265 | 9.44° C | 90% | 1030.1 hPa | 0 mm | - | - | - |
| 1777855065 | 10° C | 89% | 1030.2 hPa | 0 mm | - | - | - |
| 1777854465 | 10° C | 89% | 1030.4 hPa | 0 mm | - | - | - |
| 1777853866 | 10° C | 89% | 1030.4 hPa | 0 mm | - | - | - |
| 1777853264 | 10° C | 90% | 1030.4 hPa | 0 mm | - | - | - |
| 1777852664 | 10° C | 88% | 1030.6 hPa | 0 mm | - | - | - |
| 1777852065 | 10° C | 89% | 1030.8 hPa | 0 mm | - | - | - |
| 1777851465 | 10° C | 89% | 1030.6 hPa | 0 mm | - | - | - |
| 1777850864 | 10° C | 90% | 1030.6 hPa | 0 mm | - | - | - |
| 1777850265 | 10° C | 90% | 1030.8 hPa | 0 mm | - | - | - |
| 1777849665 | 10° C | 90% | 1030.8 hPa | 0 mm | - | - | - |
| 1777849065 | 10° C | 90% | 1030.8 hPa | 0 mm | - | - | - |
| 1777848465 | 10° C | 90% | 1030.9 hPa | 0 mm | - | - | - |
| 1777847865 | 10° C | 90% | 1030.8 hPa | 0 mm | - | - | - |
| 1777847265 | 10° C | 89% | 1030.9 hPa | 0 mm | - | - | - |
| 1777846666 | 10.56° C | 89% | 1030.6 hPa | 0 mm | - | - | - |
| 1777846064 | 10.56° C | 89% | 1030.8 hPa | 0 mm | - | - | - |
| 1777845465 | 10.56° C | 89% | 1030.8 hPa | 0 mm | - | - | - |
| 1777844866 | 10.56° C | 90% | 1030.8 hPa | 0 mm | - | - | - |
| 1777844264 | 10.56° C | 90% | 1030.8 hPa | 0 mm | - | - | - |
| 1777843664 | 10.56° C | 88% | 1030.7 hPa | 0 mm | - | - | - |
* Rain latest hour (hover to see other rain measurements)
** Current wind speed in m/s (hover to see current wind gust speed)